1596319238,2020-08-02 00:00,30.93,990.83,1016.61,214,30.31,11.28,-27,1
1596319299,2020-08-02 00:01,30.84,990.82,1016.61,214,30.31,11.24,-28,1
1596319421,2020-08-02 00:03,30.91,990.85,1016.63,214,30.31,11.27,-26,1
1596319482,2020-08-02 00:04,30.93,990.82,1016.61,214,30.31,11.28,-32,1
1596319543,2020-08-02 00:05,31.02,990.88,1016.66,214,30.32,11.34,-31,1
1596319604,2020-08-02 00:06,30.94,990.85,1016.63,214,30.31,11.29,-27,1
1596319665,2020-08-02 00:07,30.94,990.87,1016.65,214,30.30,11.28,-31,1
1596319727,2020-08-02 00:08,31.01,990.87,1016.66,214,30.30,11.31,-30,1
1596319788,2020-08-02 00:09,30.94,990.88,1016.66,214,30.31,11.29,-30,1
1596319849,2020-08-02 00:10,30.97,990.87,1016.65,214,30.31,11.30,-29,1
1596319910,2020-08-02 00:11,30.97,990.85,1016.63,214,30.31,11.30,-31,1
1596319971,2020-08-02 00:12,30.82,990.83,1016.61,214,30.30,11.22,-28,1
1596320032,2020-08-02 00:13,30.98,990.84,1016.62,214,30.30,11.30,-30,1
1596320094,2020-08-02 00:14,30.97,990.85,1016.63,214,30.30,11.29,-31,1
1596320155,2020-08-02 00:15,30.98,990.83,1016.61,214,30.30,11.30,-30,1
1596320216,2020-08-02 00:16,30.98,990.84,1016.62,214,30.30,11.30,-32,1
1596320277,2020-08-02 00:17,30.98,990.82,1016.61,214,30.30,11.30,-32,1
1596320339,2020-08-02 00:18,30.97,990.81,1016.59,214,30.30,11.29,-31,1
1596320400,2020-08-02 00:20,30.99,990.81,1016.59,214,30.30,11.30,-32,1
1596320461,2020-08-02 00:21,30.97,990.81,1016.59,214,30.31,11.30,-31,1
1596320522,2020-08-02 00:22,31.00,990.85,1016.63,214,30.31,11.32,-31,1
1596320583,2020-08-02 00:23,30.97,990.84,1016.62,214,30.31,11.30,-30,1
1596320644,2020-08-02 00:24,30.97,990.84,1016.63,214,30.31,11.30,-30,1
1596320706,2020-08-02 00:25,30.99,990.86,1016.64,214,30.31,11.31,-30,1
1596320767,2020-08-02 00:26,30.99,990.85,1016.63,214,30.31,11.31,-31,1
1596320828,2020-08-02 00:27,30.99,990.85,1016.63,214,30.31,11.31,-30,1
1596320889,2020-08-02 00:28,31.01,990.83,1016.62,214,30.30,11.31,-29,1
1596320950,2020-08-02 00:29,31.02,990.82,1016.60,214,30.30,11.32,-31,1
1596321012,2020-08-02 00:30,31.00,990.84,1016.62,214,30.30,11.31,-30,1
1596321073,2020-08-02 00:31,31.01,990.81,1016.59,214,30.31,11.32,-30,1
1596321134,2020-08-02 00:32,31.00,990.79,1016.58,214,30.31,11.32,-29,1
1596321195,2020-08-02 00:33,31.00,990.78,1016.57,214,30.30,11.31,-31,1
1596321256,2020-08-02 00:34,31.01,990.78,1016.57,214,30.29,11.30,-30,1
1596321318,2020-08-02 00:35,31.01,990.81,1016.59,214,30.30,11.31,-30,1
1596321379,2020-08-02 00:36,31.02,990.80,1016.59,214,30.30,11.32,-30,1
1596321441,2020-08-02 00:37,31.01,990.80,1016.59,214,30.30,11.31,-32,1
1596321502,2020-08-02 00:38,31.01,990.82,1016.61,214,30.30,11.31,-30,1
1596321564,2020-08-02 00:39,31.02,990.82,1016.60,214,30.30,11.32,-31,1
1596321625,2020-08-02 00:40,31.02,990.83,1016.62,214,30.29,11.31,-31,1
1596321686,2020-08-02 00:41,31.16,990.84,1016.62,214,30.29,11.38,-32,1
1596321747,2020-08-02 00:42,31.03,990.80,1016.59,214,30.29,11.32,-31,1
1596321808,2020-08-02 00:43,31.02,990.82,1016.61,214,30.29,11.31,-31,1
1596321869,2020-08-02 00:44,31.04,990.81,1016.59,214,30.29,11.32,-30,1
1596321931,2020-08-02 00:45,31.04,990.82,1016.60,214,30.29,11.32,-31,1
1596321992,2020-08-02 00:46,31.04,990.84,1016.63,214,30.29,11.32,-30,1
1596322053,2020-08-02 00:47,31.03,990.87,1016.65,214,30.29,11.31,-31,1
1596322114,2020-08-02 00:48,31.20,990.87,1016.66,214,30.28,11.39,-30,1
1596322175,2020-08-02 00:49,31.01,990.86,1016.64,214,30.28,11.30,-30,1
1596322237,2020-08-02 00:50,31.05,990.87,1016.65,214,30.28,11.32,-28,1
1596322298,2020-08-02 00:51,31.05,990.84,1016.62,214,30.29,11.33,-32,1
1596322422,2020-08-02 00:53,31.10,990.85,1016.63,214,30.28,11.34,-30,1
1596322483,2020-08-02 00:54,31.06,990.82,1016.60,214,30.28,11.32,-30,1
1596322544,2020-08-02 00:55,31.12,990.84,1016.62,214,30.28,11.35,-29,1
1596322606,2020-08-02 00:56,31.05,990.85,1016.63,214,30.28,11.32,-29,1
1596322667,2020-08-02 00:57,31.06,990.85,1016.63,214,30.28,11.32,-31,1
1596322728,2020-08-02 00:58,31.05,990.86,1016.64,214,30.27,11.31,-31,1
1596322789,2020-08-02 00:59,31.09,990.87,1016.65,214,30.27,11.32,-32,1
1596322850,2020-08-02 01:00,31.05,990.88,1016.66,214,30.28,11.32,-32,1
1596322911,2020-08-02 01:01,31.05,990.87,1016.66,214,30.27,11.31,-31,1
1596323033,2020-08-02 01:03,31.06,990.85,1016.64,214,30.26,11.30,-31,1
1596323095,2020-08-02 01:04,31.07,990.86,1016.64,214,30.26,11.31,-32,1
1596323156,2020-08-02 01:05,31.19,990.83,1016.61,214,30.27,11.37,-32,1
1596323217,2020-08-02 01:06,31.10,990.85,1016.63,214,30.26,11.32,-30,1
1596323278,2020-08-02 01:07,31.09,990.83,1016.61,214,30.26,11.32,-26,1
1596323339,2020-08-02 01:08,31.25,990.82,1016.60,214,30.26,11.40,-30,1
1596323401,2020-08-02 01:10,31.10,990.83,1016.61,214,30.26,11.32,-28,1
1596323462,2020-08-02 01:11,31.11,990.82,1016.60,214,30.25,11.32,-31,1
1596323523,2020-08-02 01:12,31.15,990.87,1016.65,214,30.25,11.34,-30,1
1596323584,2020-08-02 01:13,31.08,990.84,1016.62,214,30.25,11.31,-28,1
1596323646,2020-08-02 01:14,31.14,990.87,1016.65,214,30.25,11.33,-31,1
1596323707,2020-08-02 01:15,31.12,990.90,1016.68,214,30.26,11.33,-30,1
1596323768,2020-08-02 01:16,31.08,990.88,1016.67,214,30.25,11.31,-31,1
1596323829,2020-08-02 01:17,31.12,990.88,1016.66,214,30.24,11.31,-30,1
1596323890,2020-08-02 01:18,31.08,990.87,1016.65,214,30.25,11.31,-31,1
1596323951,2020-08-02 01:19,31.11,990.89,1016.67,214,30.24,11.31,-31,1
1596324013,2020-08-02 01:20,31.09,990.86,1016.65,214,30.24,11.30,-31,1
1596324074,2020-08-02 01:21,31.13,990.84,1016.63,214,30.23,11.31,-30,1
1596324135,2020-08-02 01:22,31.13,990.88,1016.67,214,30.23,11.31,-28,1
1596324196,2020-08-02 01:23,31.18,990.86,1016.65,214,30.23,11.34,-28,1
1596324257,2020-08-02 01:24,31.11,990.86,1016.64,214,30.23,11.30,-31,1
1596324318,2020-08-02 01:25,31.14,990.84,1016.63,214,30.23,11.32,-26,1
1596324379,2020-08-02 01:26,31.13,990.87,1016.65,214,30.23,11.31,-31,1
1596324441,2020-08-02 01:27,31.14,990.84,1016.62,214,30.23,11.32,-31,1
1596324502,2020-08-02 01:28,31.14,990.85,1016.63,214,30.23,11.32,-31,1
1596324563,2020-08-02 01:29,31.14,990.85,1016.63,214,30.23,11.32,-31,1
1596324624,2020-08-02 01:30,31.14,990.85,1016.64,214,30.22,11.31,-30,1
1596324685,2020-08-02 01:31,31.15,990.84,1016.63,214,30.23,11.32,-31,1
1596324746,2020-08-02 01:32,31.13,990.86,1016.64,214,30.23,11.31,-30,1
1596324807,2020-08-02 01:33,31.14,990.85,1016.63,214,30.22,11.31,-31,1
1596324869,2020-08-02 01:34,31.14,990.86,1016.64,214,30.22,11.31,-29,1
1596324930,2020-08-02 01:35,31.14,990.84,1016.62,214,30.22,11.31,-30,1
1596324991,2020-08-02 01:36,31.14,990.83,1016.62,214,30.21,11.30,-32,1
1596325052,2020-08-02 01:37,31.15,990.81,1016.59,214,30.21,11.30,-30,1
1596325114,2020-08-02 01:38,31.16,990.82,1016.60,214,30.20,11.30,-29,1
1596325175,2020-08-02 01:39,31.14,990.83,1016.61,214,30.20,11.29,-31,1
1596325236,2020-08-02 01:40,31.15,990.84,1016.62,214,30.19,11.28,-30,1
1596325298,2020-08-02 01:41,31.16,990.85,1016.63,214,30.19,11.29,-30,1
1596325359,2020-08-02 01:42,31.10,990.86,1016.65,214,30.19,11.26,-31,1
1596325420,2020-08-02 01:43,31.17,990.88,1016.66,214,30.19,11.30,-30,1
1596325481,2020-08-02 01:44,31.17,990.88,1016.67,214,30.19,11.30,-32,1
1596325542,2020-08-02 01:45,31.17,990.88,1016.67,214,30.18,11.29,-31,1
1596325604,2020-08-02 01:46,31.17,990.87,1016.66,214,30.18,11.29,-30,1
1596325665,2020-08-02 01:47,31.15,990.85,1016.63,214,30.18,11.28,-32,1
1596325726,2020-08-02 01:48,31.29,990.83,1016.61,214,30.18,11.35,-31,1
1596325787,2020-08-02 01:49,31.18,990.82,1016.61,214,30.17,11.28,-32,1
1596325848,2020-08-02 01:50,31.16,990.81,1016.59,214,30.17,11.27,-32,1
1596325910,2020-08-02 01:51,31.17,990.79,1016.57,214,30.17,11.28,-31,1
1596325971,2020-08-02 01:52,31.17,990.78,1016.57,214,30.16,11.27,-35,1
1596326032,2020-08-02 01:53,31.16,990.77,1016.56,214,30.16,11.26,-31,1
1596326093,2020-08-02 01:54,31.17,990.73,1016.51,214,30.16,11.27,-30,1
1596326155,2020-08-02 01:55,31.18,990.72,1016.51,214,30.16,11.27,-29,1
1596326216,2020-08-02 01:56,31.19,990.73,1016.51,214,30.16,11.28,-32,1
1596326277,2020-08-02 01:57,31.18,990.72,1016.50,214,30.16,11.27,-28,1
1596326338,2020-08-02 01:58,31.18,990.73,1016.51,214,30.16,11.27,-30,1
1596326399,2020-08-02 01:59,31.22,990.74,1016.52,214,30.15,11.29,-28,1
1596326460,2020-08-02 02:01,31.19,990.74,1016.53,214,30.15,11.27,-30,1
1596326522,2020-08-02 02:02,31.22,990.74,1016.52,214,30.15,11.29,-30,1
1596326643,2020-08-02 02:04,31.19,990.70,1016.48,214,30.14,11.26,-31,1
1596326704,2020-08-02 02:05,31.18,990.70,1016.48,214,30.15,11.26,-30,1
1596326766,2020-08-02 02:06,31.18,990.69,1016.47,214,30.15,11.26,-31,1
1596326827,2020-08-02 02:07,31.19,990.66,1016.44,214,30.14,11.26,-32,1
1596326888,2020-08-02 02:08,31.43,990.64,1016.42,214,30.14,11.38,-31,1
1596326949,2020-08-02 02:09,31.19,990.61,1016.39,214,30.13,11.25,-32,1
1596327010,2020-08-02 02:10,31.19,990.58,1016.36,214,30.14,11.26,-31,1
1596327072,2020-08-02 02:11,31.19,990.56,1016.34,214,30.13,11.25,-30,1
1596327133,2020-08-02 02:12,31.13,990.51,1016.30,214,30.12,11.22,-28,1
1596327194,2020-08-02 02:13,31.19,990.49,1016.27,214,30.12,11.24,-30,1
1596327256,2020-08-02 02:14,31.20,990.50,1016.29,214,30.12,11.25,-29,1
1596327317,2020-08-02 02:15,31.20,990.47,1016.25,214,30.12,11.25,-28,1
1596327378,2020-08-02 02:16,31.29,990.47,1016.25,214,30.12,11.29,-29,1
1596327439,2020-08-02 02:17,31.20,990.47,1016.25,214,30.11,11.24,-30,1
1596327501,2020-08-02 02:18,31.22,990.46,1016.24,214,30.10,11.24,-31,1
1596327562,2020-08-02 02:19,31.22,990.48,1016.26,214,30.10,11.24,-30,1
1596327623,2020-08-02 02:20,31.21,990.49,1016.27,214,30.10,11.24,-30,1
1596327684,2020-08-02 02:21,31.20,990.46,1016.24,214,30.10,11.23,-31,1
1596327745,2020-08-02 02:22,31.21,990.47,1016.25,214,30.11,11.25,-30,1
1596327806,2020-08-02 02:23,31.22,990.42,1016.21,214,30.10,11.24,-31,1
1596327868,2020-08-02 02:24,31.21,990.44,1016.22,214,30.11,11.25,-31,1
1596327929,2020-08-02 02:25,31.22,990.41,1016.20,214,30.11,11.25,-32,1
1596327990,2020-08-02 02:26,31.33,990.43,1016.21,214,30.10,11.30,-31,1
1596328051,2020-08-02 02:27,31.21,990.43,1016.21,214,30.11,11.24,-31,1
1596328112,2020-08-02 02:28,31.22,990.42,1016.21,214,30.11,11.25,-31,1
1596328173,2020-08-02 02:29,31.20,990.40,1016.19,214,30.10,11.23,-31,1
1596328235,2020-08-02 02:30,31.15,990.42,1016.21,214,30.10,11.21,-31,1
1596328296,2020-08-02 02:31,31.21,990.42,1016.20,214,30.09,11.23,-32,1
1596328357,2020-08-02 02:32,31.23,990.40,1016.18,214,30.08,11.23,-30,1
1596328418,2020-08-02 02:33,31.23,990.40,1016.18,214,30.08,11.23,-31,1
1596328480,2020-08-02 02:34,31.22,990.40,1016.18,214,30.08,11.22,-32,1
1596328541,2020-08-02 02:35,31.02,990.39,1016.17,214,30.07,11.12,-31,1
1596328602,2020-08-02 02:36,31.22,990.36,1016.15,214,30.07,11.21,-31,1
1596328664,2020-08-02 02:37,31.25,990.38,1016.16,214,30.06,11.22,-30,1
1596328725,2020-08-02 02:38,31.24,990.36,1016.15,214,30.07,11.23,-28,1
1596328786,2020-08-02 02:39,31.23,990.35,1016.13,214,30.06,11.21,-29,1
1596328847,2020-08-02 02:40,31.24,990.32,1016.10,214,30.05,11.21,-31,1
1596328908,2020-08-02 02:41,31.22,990.34,1016.12,214,30.06,11.21,-27,1
1596328969,2020-08-02 02:42,31.24,990.34,1016.12,214,30.06,11.22,-31,1
1596329031,2020-08-02 02:43,31.23,990.35,1016.14,214,30.05,11.20,-32,1
1596329092,2020-08-02 02:44,31.23,990.34,1016.12,214,30.05,11.20,-30,1
1596329153,2020-08-02 02:45,31.24,990.34,1016.12,214,30.05,11.21,-27,1
1596329214,2020-08-02 02:46,31.23,990.35,1016.13,214,30.04,11.19,-31,1
1596329275,2020-08-02 02:47,31.25,990.35,1016.13,214,30.04,11.20,-30,1
1596329337,2020-08-02 02:48,31.26,990.33,1016.12,214,30.04,11.21,-32,1
1596329398,2020-08-02 02:49,31.26,990.35,1016.13,214,30.04,11.21,-27,1
1596329460,2020-08-02 02:51,31.26,990.30,1016.08,214,30.03,11.20,-31,1
1596329521,2020-08-02 02:52,31.26,990.28,1016.07,214,30.03,11.20,-30,1
1596329582,2020-08-02 02:53,31.26,990.27,1016.05,214,30.03,11.20,-31,1
1596329644,2020-08-02 02:54,31.27,990.23,1016.01,214,30.02,11.20,-30,1
1596329705,2020-08-02 02:55,31.27,990.23,1016.01,214,30.02,11.20,-31,1
1596329766,2020-08-02 02:56,31.27,990.25,1016.03,214,30.02,11.20,-31,1
1596329827,2020-08-02 02:57,31.27,990.25,1016.03,214,30.02,11.20,-30,1
1596329889,2020-08-02 02:58,31.14,990.26,1016.05,214,30.02,11.13,-32,1
1596329950,2020-08-02 02:59,31.28,990.27,1016.06,214,30.01,11.19,-32,1
1596330011,2020-08-02 03:00,31.29,990.28,1016.06,214,30.00,11.19,-30,1
1596330072,2020-08-02 03:01,31.27,990.30,1016.08,214,30.01,11.19,-30,1
1596330196,2020-08-02 03:03,31.38,990.31,1016.10,214,30.00,11.23,-31,1
1596330257,2020-08-02 03:04,31.17,990.28,1016.07,214,30.00,11.13,-30,1
1596330319,2020-08-02 03:05,31.29,990.24,1016.02,214,30.00,11.19,-31,1
1596330380,2020-08-02 03:06,31.29,990.28,1016.06,214,29.99,11.18,-30,1
1596330441,2020-08-02 03:07,31.30,990.26,1016.04,214,29.99,11.19,-31,1
1596330502,2020-08-02 03:08,31.30,990.28,1016.06,214,29.99,11.19,-32,1
1596330564,2020-08-02 03:09,31.30,990.29,1016.08,214,29.99,11.19,-32,1
1596330625,2020-08-02 03:10,31.30,990.29,1016.08,214,29.98,11.18,-32,1
1596330686,2020-08-02 03:11,31.29,990.30,1016.09,214,29.99,11.18,-30,1
1596330747,2020-08-02 03:12,31.30,990.34,1016.12,214,29.98,11.18,-30,1
1596330808,2020-08-02 03:13,31.31,990.28,1016.06,214,29.97,11.17,-31,1
1596330869,2020-08-02 03:14,31.32,990.28,1016.07,214,29.97,11.18,-30,1
1596330931,2020-08-02 03:15,31.24,990.28,1016.07,214,29.97,11.14,-28,1
1596330992,2020-08-02 03:16,31.31,990.26,1016.04,214,29.97,11.17,-31,1
1596331053,2020-08-02 03:17,31.30,990.28,1016.06,214,29.97,11.17,-30,1
1596331114,2020-08-02 03:18,31.31,990.27,1016.05,214,29.96,11.16,-30,1
1596331176,2020-08-02 03:19,31.31,990.28,1016.06,214,29.96,11.16,-32,1
1596331237,2020-08-02 03:20,31.32,990.30,1016.09,214,29.96,11.17,-32,1
1596331298,2020-08-02 03:21,31.31,990.25,1016.03,214,29.96,11.16,-31,1
1596331359,2020-08-02 03:22,31.32,990.24,1016.03,214,29.96,11.17,-30,1
1596331420,2020-08-02 03:23,31.31,990.26,1016.05,214,29.96,11.16,-31,1
1596331482,2020-08-02 03:24,31.41,990.25,1016.03,214,29.95,11.20,-30,1
1596331543,2020-08-02 03:25,31.21,990.26,1016.04,214,29.95,11.11,-32,1
1596331604,2020-08-02 03:26,31.31,990.23,1016.02,214,29.94,11.15,-33,1
1596331665,2020-08-02 03:27,31.33,990.25,1016.04,214,29.94,11.16,-32,1
1596331726,2020-08-02 03:28,31.30,990.22,1016.01,214,29.94,11.14,-31,1
1596331788,2020-08-02 03:29,31.31,990.20,1015.99,214,29.94,11.15,-30,1
1596331849,2020-08-02 03:30,31.30,990.17,1015.95,214,29.94,11.14,-31,1
1596331910,2020-08-02 03:31,31.32,990.17,1015.95,214,29.93,11.14,-31,1
1596331971,2020-08-02 03:32,31.31,990.17,1015.95,214,29.93,11.14,-30,1
1596332032,2020-08-02 03:33,31.32,990.15,1015.93,214,29.93,11.14,-31,1
1596332094,2020-08-02 03:34,31.32,990.11,1015.89,214,29.93,11.14,-31,1
1596332155,2020-08-02 03:35,31.32,990.11,1015.90,214,29.93,11.14,-30,1
1596332216,2020-08-02 03:36,31.32,990.12,1015.90,214,29.93,11.14,-31,1
1596332278,2020-08-02 03:37,31.31,990.07,1015.86,214,29.92,11.13,-27,1
1596332339,2020-08-02 03:38,31.32,990.09,1015.87,214,29.92,11.13,-29,1
1596332400,2020-08-02 03:40,31.31,990.09,1015.87,214,29.92,11.13,-29,1
1596332461,2020-08-02 03:41,31.32,990.10,1015.89,214,29.92,11.13,-32,1
1596332522,2020-08-02 03:42,31.32,990.09,1015.88,214,29.92,11.13,-32,1
1596332584,2020-08-02 03:43,31.21,990.07,1015.85,214,29.91,11.07,-30,1
1596332645,2020-08-02 03:44,31.33,990.08,1015.86,214,29.91,11.13,-28,1
1596332706,2020-08-02 03:45,31.39,990.05,1015.83,214,29.91,11.16,-31,1
1596332767,2020-08-02 03:46,31.32,990.04,1015.83,214,29.90,11.12,-28,1
1596332828,2020-08-02 03:47,31.33,990.06,1015.84,214,29.90,11.12,-31,1
1596332889,2020-08-02 03:48,31.24,990.04,1015.83,214,29.90,11.08,-29,1
1596332951,2020-08-02 03:49,31.33,990.05,1015.83,214,29.90,11.12,-32,1
1596333012,2020-08-02 03:50,31.22,990.04,1015.82,214,29.90,11.07,-32,1
1596333073,2020-08-02 03:51,31.32,990.04,1015.82,214,29.89,11.11,-32,1
1596333136,2020-08-02 03:52,31.33,990.04,1015.82,214,29.89,11.11,-31,1
1596333197,2020-08-02 03:53,31.33,990.01,1015.79,214,29.89,11.11,-31,1
1596333259,2020-08-02 03:54,31.33,990.02,1015.80,214,29.89,11.11,-30,1
1596333320,2020-08-02 03:55,31.33,990.03,1015.81,214,29.89,11.11,-31,1
1596333381,2020-08-02 03:56,31.34,990.04,1015.83,214,29.88,11.11,-30,1
1596333442,2020-08-02 03:57,31.32,990.02,1015.80,214,29.88,11.10,-31,1
1596333504,2020-08-02 03:58,31.38,990.02,1015.80,214,29.88,11.13,-29,1
1596333565,2020-08-02 03:59,31.31,990.01,1015.80,214,29.88,11.10,-28,1
1596333626,2020-08-02 04:00,31.30,990.02,1015.80,214,29.88,11.09,-29,1
1596333687,2020-08-02 04:01,31.33,990.01,1015.79,214,29.88,11.10,-31,1
1596333809,2020-08-02 04:03,31.31,990.02,1015.80,214,29.87,11.09,-31,1
1596333870,2020-08-02 04:04,31.33,990.04,1015.82,214,29.87,11.09,-31,1
1596333931,2020-08-02 04:05,31.34,990.04,1015.82,214,29.87,11.10,-26,1
1596333992,2020-08-02 04:06,31.30,990.03,1015.81,214,29.86,11.07,-30,1
1596334053,2020-08-02 04:07,31.28,990.02,1015.80,214,29.85,11.05,-30,1
1596334115,2020-08-02 04:08,31.33,990.03,1015.81,214,29.85,11.08,-32,1
1596334176,2020-08-02 04:09,31.33,989.98,1015.77,214,29.85,11.08,-29,1
1596334237,2020-08-02 04:10,31.33,990.00,1015.78,214,29.85,11.08,-32,1
1596334298,2020-08-02 04:11,31.43,990.02,1015.81,214,29.84,11.12,-30,1
1596334359,2020-08-02 04:12,31.32,989.99,1015.77,214,29.84,11.07,-31,1
1596334421,2020-08-02 04:13,31.33,990.01,1015.79,214,29.84,11.07,-31,1
1596334482,2020-08-02 04:14,31.32,990.04,1015.82,214,29.84,11.07,-30,1
1596334543,2020-08-02 04:15,31.35,990.04,1015.82,214,29.84,11.08,-31,1
1596334667,2020-08-02 04:17,31.32,990.06,1015.85,214,29.84,11.07,-32,1
1596334728,2020-08-02 04:18,31.31,990.04,1015.83,214,29.83,11.05,-32,1
1596334789,2020-08-02 04:19,31.32,990.04,1015.82,214,29.83,11.06,-30,1
1596334851,2020-08-02 04:20,31.33,990.05,1015.83,214,29.83,11.06,-28,1
1596334912,2020-08-02 04:21,31.34,990.02,1015.80,214,29.83,11.07,-30,1
1596334973,2020-08-02 04:22,31.43,990.00,1015.78,214,29.82,11.10,-32,1
1596335034,2020-08-02 04:23,31.32,989.98,1015.76,214,29.82,11.05,-31,1
1596335096,2020-08-02 04:24,31.31,990.00,1015.79,214,29.82,11.04,-29,1
1596335157,2020-08-02 04:25,31.32,989.96,1015.75,214,29.82,11.05,-30,1
1596335218,2020-08-02 04:26,31.42,989.94,1015.72,214,29.81,11.09,-32,1
1596335279,2020-08-02 04:27,31.31,989.94,1015.73,214,29.81,11.03,-31,1
1596335340,2020-08-02 04:29,31.38,989.91,1015.70,214,29.81,11.07,-31,1
1596335402,2020-08-02 04:30,31.31,989.90,1015.68,214,29.80,11.03,-31,1
1596335463,2020-08-02 04:31,31.31,989.88,1015.67,214,29.80,11.03,-28,1
1596335524,2020-08-02 04:32,31.31,989.85,1015.64,214,29.80,11.03,-30,1
1596335585,2020-08-02 04:33,31.30,989.85,1015.64,214,29.80,11.02,-31,1
1596335647,2020-08-02 04:34,31.31,989.84,1015.62,214,29.80,11.03,-31,1
1596335708,2020-08-02 04:35,31.35,989.83,1015.61,214,29.80,11.05,-32,1
1596335769,2020-08-02 04:36,31.31,989.85,1015.64,214,29.80,11.03,-30,1
1596335831,2020-08-02 04:37,31.31,989.87,1015.65,214,29.79,11.02,-28,1
1596335893,2020-08-02 04:38,31.12,989.89,1015.68,214,29.79,10.93,-32,1
1596335954,2020-08-02 04:39,31.30,989.90,1015.68,214,29.79,11.01,-32,1
1596336015,2020-08-02 04:40,31.31,989.91,1015.70,214,29.78,11.01,-32,1
1596336077,2020-08-02 04:41,31.29,989.96,1015.74,214,29.78,11.00,-28,1
1596336138,2020-08-02 04:42,31.30,989.97,1015.76,214,29.77,10.99,-30,1
1596336199,2020-08-02 04:43,31.14,989.98,1015.76,214,29.78,10.93,-30,1
1596336260,2020-08-02 04:44,31.30,990.02,1015.80,214,29.77,10.99,-30,1
1596336321,2020-08-02 04:45,31.30,990.01,1015.79,214,29.77,10.99,-32,1
1596336382,2020-08-02 04:46,31.29,990.03,1015.81,214,29.77,10.99,-32,1
1596336443,2020-08-02 04:47,31.42,990.00,1015.78,214,29.76,11.04,-31,1
1596336504,2020-08-02 04:48,31.28,990.03,1015.81,214,29.76,10.98,-30,1
1596336566,2020-08-02 04:49,31.31,990.01,1015.79,214,29.75,10.98,-31,1
1596336627,2020-08-02 04:50,31.29,990.02,1015.80,214,29.75,10.98,-31,1
1596336688,2020-08-02 04:51,31.29,990.03,1015.81,214,29.75,10.98,-30,1
1596336749,2020-08-02 04:52,31.29,990.04,1015.82,214,29.75,10.98,-31,1
1596336810,2020-08-02 04:53,31.29,990.04,1015.83,214,29.75,10.98,-32,1
1596336872,2020-08-02 04:54,31.27,990.04,1015.82,214,29.75,10.96,-29,1
1596336933,2020-08-02 04:55,31.30,990.03,1015.81,214,29.74,10.97,-29,1
1596336994,2020-08-02 04:56,31.29,990.02,1015.81,214,29.73,10.96,-30,1
1596337055,2020-08-02 04:57,31.29,990.01,1015.79,214,29.73,10.96,-27,1
1596337116,2020-08-02 04:58,31.29,990.01,1015.79,214,29.73,10.96,-30,1
1596337177,2020-08-02 04:59,31.28,990.07,1015.85,214,29.73,10.95,-30,1
1596337239,2020-08-02 05:00,31.27,990.05,1015.84,214,29.72,10.94,-30,1
1596337300,2020-08-02 05:01,31.29,990.04,1015.83,214,29.72,10.95,-30,1
1596337422,2020-08-02 05:03,31.29,990.01,1015.79,214,29.71,10.94,-28,1
1596337483,2020-08-02 05:04,31.28,990.03,1015.81,214,29.70,10.92,-31,1
1596337544,2020-08-02 05:05,31.28,990.05,1015.83,214,29.71,10.93,-31,1
1596337605,2020-08-02 05:06,31.28,990.08,1015.86,214,29.70,10.92,-30,1
1596337666,2020-08-02 05:07,31.29,990.08,1015.87,214,29.70,10.93,-31,1
1596337728,2020-08-02 05:08,31.29,990.07,1015.86,214,29.70,10.93,-30,1
1596337789,2020-08-02 05:09,31.28,990.08,1015.86,214,29.70,10.92,-27,1
1596337850,2020-08-02 05:10,31.28,990.06,1015.84,214,29.69,10.92,-31,1
1596337912,2020-08-02 05:11,31.30,990.07,1015.86,214,29.69,10.93,-30,1
1596337973,2020-08-02 05:12,31.28,990.05,1015.84,214,29.69,10.92,-31,1
1596338034,2020-08-02 05:13,31.26,990.06,1015.84,214,29.68,10.90,-31,1
1596338095,2020-08-02 05:14,31.27,990.05,1015.84,214,29.68,10.90,-31,1
1596338157,2020-08-02 05:15,31.27,990.07,1015.85,214,29.68,10.90,-31,1
1596338218,2020-08-02 05:16,31.28,990.07,1015.85,214,29.68,10.91,-30,1
1596338279,2020-08-02 05:17,31.29,990.07,1015.85,214,29.68,10.91,-30,1
1596338340,2020-08-02 05:19,31.27,990.08,1015.86,214,29.67,10.89,-30,1
1596338402,2020-08-02 05:20,31.27,990.07,1015.86,214,29.67,10.89,-30,1
1596338463,2020-08-02 05:21,31.25,990.08,1015.86,214,29.67,10.88,-31,1
1596338524,2020-08-02 05:22,31.26,990.13,1015.92,214,29.66,10.88,-31,1
1596338585,2020-08-02 05:23,31.49,990.13,1015.91,214,29.65,10.98,-32,1
1596338646,2020-08-02 05:24,31.25,990.13,1015.92,214,29.66,10.88,-31,1
1596338708,2020-08-02 05:25,31.25,990.11,1015.89,214,29.65,10.87,-30,1
1596338769,2020-08-02 05:26,31.23,990.11,1015.89,214,29.65,10.86,-30,1
1596338830,2020-08-02 05:27,31.25,990.10,1015.88,214,29.65,10.87,-29,1
1596338892,2020-08-02 05:28,31.23,990.07,1015.86,214,29.65,10.86,-30,1
1596338953,2020-08-02 05:29,31.24,990.06,1015.85,214,29.65,10.86,-30,1
1596339014,2020-08-02 05:30,31.22,990.05,1015.83,214,29.65,10.85,-31,1
1596339076,2020-08-02 05:31,31.22,990.04,1015.82,214,29.64,10.84,-30,1
1596339137,2020-08-02 05:32,31.23,990.00,1015.78,214,29.64,10.85,-30,1
1596339198,2020-08-02 05:33,31.24,990.02,1015.80,214,29.63,10.85,-31,1
1596339259,2020-08-02 05:34,31.22,990.02,1015.81,214,29.63,10.84,-31,1
1596339321,2020-08-02 05:35,31.01,990.03,1015.82,214,29.63,10.73,-31,1
1596339382,2020-08-02 05:36,31.22,990.01,1015.79,214,29.63,10.84,-30,1
1596339443,2020-08-02 05:37,31.21,990.02,1015.80,214,29.63,10.83,-31,1
1596339505,2020-08-02 05:38,31.21,990.03,1015.81,214,29.62,10.82,-30,1
1596339566,2020-08-02 05:39,31.13,990.04,1015.83,214,29.61,10.78,-30,1
1596339627,2020-08-02 05:40,31.21,990.03,1015.82,214,29.62,10.82,-31,1
1596339688,2020-08-02 05:41,31.20,990.04,1015.82,214,29.61,10.81,-30,1
1596339750,2020-08-02 05:42,31.20,990.06,1015.85,214,29.61,10.81,-29,1
1596339811,2020-08-02 05:43,31.21,990.04,1015.83,214,29.61,10.81,-30,1
1596339872,2020-08-02 05:44,31.24,990.08,1015.86,214,29.60,10.82,-31,1
1596339933,2020-08-02 05:45,30.95,990.12,1015.90,214,29.60,10.68,-31,1
1596340057,2020-08-02 05:47,31.20,990.12,1015.90,214,29.60,10.80,-29,1
1596340118,2020-08-02 05:48,31.21,990.11,1015.90,214,29.59,10.79,-28,1
1596340180,2020-08-02 05:49,31.08,990.11,1015.89,214,29.59,10.74,-31,1
1596340241,2020-08-02 05:50,31.18,990.12,1015.91,214,29.59,10.78,-29,1
1596340302,2020-08-02 05:51,31.17,990.16,1015.94,214,29.59,10.78,-30,1
1596340363,2020-08-02 05:52,31.18,990.13,1015.91,214,29.58,10.77,-31,1
1596340424,2020-08-02 05:53,31.17,990.10,1015.89,214,29.58,10.77,-31,1